TimeCST,TemperatureF,Dew PointF,Humidity,Sea Level PressureIn,VisibilityMPH,Wind Direction,Wind SpeedMPH,Gust SpeedMPH,PrecipitationIn,Events,Conditions,WindDirDegrees,DateUTC
12:15 AM,33.8,33.8,100,30.09,1.2,NNW,8.1,-,N/A,,Overcast,330,2013-01-02 06:15:00
12:35 AM,33.8,33.8,100,30.09,0.8,North,9.2,-,N/A,,Overcast,350,2013-01-02 06:35:00
12:55 AM,33.8,33.8,100,30.07,0.5,North,10.4,-,N/A,,Overcast,350,2013-01-02 06:55:00
1:15 AM,33.8,33.8,100,30.08,0.5,NNW,9.2,-,N/A,,Overcast,340,2013-01-02 07:15:00
1:35 AM,33.8,33.8,100,30.09,0.5,North,9.2,-,N/A,,Overcast,10,2013-01-02 07:35:00
1:55 AM,33.8,33.8,100,30.10,0.2,NNW,8.1,-,N/A,,Overcast,340,2013-01-02 07:55:00
2:15 AM,33.8,33.8,100,30.10,0.2,North,8.1,-,N/A,,Overcast,350,2013-01-02 08:15:00
2:35 AM,33.8,32.0,93,30.10,0.2,NNW,10.4,-,N/A,,Overcast,340,2013-01-02 08:35:00
2:55 AM,32.0,32.0,100,30.11,0.2,NNW,9.2,-,N/A,,Overcast,340,2013-01-02 08:55:00
3:15 AM,32.0,32.0,100,30.10,0.2,North,11.5,-,N/A,,Overcast,350,2013-01-02 09:15:00
3:35 AM,32.0,32.0,100,30.11,0.5,North,9.2,-,N/A,,Overcast,360,2013-01-02 09:35:00
3:55 AM,32.0,32.0,100,30.10,0.5,North,8.1,-,N/A,,Overcast,360,2013-01-02 09:55:00
4:15 AM,32.0,30.2,93,30.11,0.5,NNW,5.8,-,N/A,,Overcast,340,2013-01-02 10:15:00
4:35 AM,30.2,30.2,100,30.12,1.2,North,10.4,-,N/A,,Overcast,350,2013-01-02 10:35:00
4:55 AM,30.2,30.2,100,30.13,0.5,NNW,9.2,-,N/A,,Overcast,340,2013-01-02 10:55:00
5:15 AM,30.2,30.2,100,30.13,0.5,North,9.2,-,N/A,,Overcast,360,2013-01-02 11:15:00
5:35 AM,30.2,30.2,100,30.14,0.5,NNW,9.2,-,N/A,,Overcast,340,2013-01-02 11:35:00
5:55 AM,30.2,30.2,100,30.13,0.2,North,8.1,-,N/A,,Overcast,360,2013-01-02 11:55:00
6:15 AM,30.2,30.2,100,30.14,0.8,NNW,8.1,-,N/A,,Overcast,340,2013-01-02 12:15:00
6:35 AM,30.2,28.4,93,30.14,0.8,North,6.9,-,N/A,,Overcast,360,2013-01-02 12:35:00
6:55 AM,30.2,28.4,93,30.15,0.8,North,8.1,-,N/A,,Overcast,350,2013-01-02 12:55:00
7:15 AM,30.2,30.2,100,30.14,1.2,North,6.9,-,N/A,,Overcast,10,2013-01-02 13:15:00
7:35 AM,30.2,30.2,100,30.15,2.5,North,5.8,-,N/A,,Overcast,360,2013-01-02 13:35:00
7:55 AM,30.2,30.2,100,30.16,2.5,North,6.9,-,N/A,,Overcast,10,2013-01-02 13:55:00
8:15 AM,30.2,30.2,100,30.16,1.5,North,6.9,-,N/A,,Overcast,360,2013-01-02 14:15:00
8:35 AM,30.2,30.2,100,30.17,1.0,North,4.6,-,N/A,,Overcast,10,2013-01-02 14:35:00
8:55 AM,30.2,30.2,100,30.18,1.0,North,5.8,-,N/A,,Overcast,360,2013-01-02 14:55:00
9:15 AM,30.2,30.2,100,30.19,0.8,North,6.9,-,N/A,,Overcast,350,2013-01-02 15:15:00
9:35 AM,30.2,30.2,100,30.19,1.0,North,5.8,-,N/A,,Overcast,360,2013-01-02 15:35:00
9:55 AM,30.2,30.2,100,30.20,1.5,North,4.6,-,N/A,,Overcast,350,2013-01-02 15:55:00
10:15 AM,30.2,30.2,100,30.19,1.2,NNW,4.6,-,N/A,,Overcast,340,2013-01-02 16:15:00
10:35 AM,30.2,30.2,100,30.19,0.5,NNW,5.8,-,N/A,,Overcast,330,2013-01-02 16:35:00
10:55 AM,30.2,30.2,100,30.19,0.8,North,6.9,-,N/A,,Overcast,350,2013-01-02 16:55:00
11:15 AM,30.2,30.2,100,30.17,0.8,NNW,5.8,-,N/A,,Overcast,340,2013-01-02 17:15:00
11:35 AM,30.2,30.2,100,30.15,1.0,NNW,4.6,-,N/A,,Overcast,340,2013-01-02 17:35:00
11:55 AM,30.2,30.2,100,30.16,0.5,NNW,6.9,-,N/A,,Overcast,330,2013-01-02 17:55:00
12:15 PM,30.2,30.2,100,30.15,0.2,North,6.9,-,N/A,,Overcast,360,2013-01-02 18:15:00
12:35 PM,30.2,30.2,100,30.14,0.2,North,6.9,-,N/A,,Overcast,350,2013-01-02 18:35:00
12:55 PM,30.2,30.2,100,30.15,0.5,NNW,6.9,-,N/A,,Overcast,340,2013-01-02 18:55:00
1:15 PM,30.2,30.2,100,30.14,0.2,North,8.1,-,N/A,,Overcast,350,2013-01-02 19:15:00
1:35 PM,30.2,30.2,100,30.14,0.2,NNW,9.2,-,N/A,,Overcast,340,2013-01-02 19:35:00
1:55 PM,30.2,30.2,100,30.14,0.2,North,6.9,-,N/A,,Overcast,360,2013-01-02 19:55:00
2:15 PM,30.2,28.4,93,30.15,0.2,North,8.1,-,N/A,,Overcast,350,2013-01-02 20:15:00
2:35 PM,30.2,28.4,93,30.14,0.2,NNW,6.9,-,N/A,,Overcast,340,2013-01-02 20:35:00
2:55 PM,30.2,30.2,100,30.14,0.2,North,6.9,-,N/A,,Overcast,360,2013-01-02 20:55:00
3:15 PM,30.2,30.2,100,30.15,0.5,NNW,5.8,-,N/A,,Overcast,340,2013-01-02 21:15:00
3:35 PM,30.2,30.2,100,30.17,0.2,NNW,5.8,-,N/A,,Overcast,340,2013-01-02 21:35:00
3:55 PM,30.2,28.4,93,30.16,0.2,NNW,4.6,-,N/A,,Overcast,340,2013-01-02 21:55:00
4:15 PM,30.2,28.4,93,30.16,0.2,NNW,3.5,-,N/A,,Overcast,340,2013-01-02 22:15:00
4:35 PM,30.2,28.4,93,30.16,0.5,NNW,5.8,-,N/A,,Overcast,330,2013-01-02 22:35:00
5:15 PM,30.2,30.2,100,30.16,0.5,North,4.6,-,N/A,,Overcast,350,2013-01-02 23:15:00
5:35 PM,30.2,30.2,100,30.17,0.5,NNW,4.6,-,N/A,,Overcast,330,2013-01-02 23:35:00
5:55 PM,30.2,28.4,93,30.17,0.5,NNW,5.8,-,N/A,,Overcast,330,2013-01-02 23:55:00
6:15 PM,30.2,30.2,100,30.18,0.5,NNW,5.8,-,N/A,,Overcast,330,2013-01-03 00:15:00
6:55 PM,30.2,28.4,93,30.18,1.0,NNW,4.6,-,N/A,,Overcast,340,2013-01-03 00:55:00
7:15 PM,30.2,30.2,100,30.19,1.8,NNW,6.9,-,N/A,,Overcast,340,2013-01-03 01:15:00
7:35 PM,30.2,28.4,93,30.20,2.0,NNW,5.8,-,N/A,,Overcast,330,2013-01-03 01:35:00
7:55 PM,28.4,28.4,100,30.19,2.0,NNW,5.8,-,N/A,,Overcast,340,2013-01-03 01:55:00
8:15 PM,30.2,28.4,93,30.20,2.0,NNW,5.8,-,N/A,,Overcast,330,2013-01-03 02:15:00
8:35 PM,30.2,28.4,93,30.19,2.5,North,4.6,-,N/A,,Overcast,360,2013-01-03 02:35:00
8:55 PM,30.2,28.4,93,30.19,3.0,North,6.9,-,N/A,,Overcast,350,2013-01-03 02:55:00
9:15 PM,30.2,30.2,100,30.19,3.0,North,6.9,-,N/A,,Overcast,360,2013-01-03 03:15:00
9:35 PM,30.2,28.4,93,30.20,3.0,NNW,8.1,-,N/A,,Overcast,340,2013-01-03 03:35:00
9:55 PM,30.2,30.2,100,30.21,4.0,North,5.8,-,N/A,,Overcast,360,2013-01-03 03:55:00
10:15 PM,30.2,30.2,100,30.20,4.0,North,5.8,-,N/A,,Overcast,10,2013-01-03 04:15:00
10:35 PM,30.2,28.4,93,30.21,4.0,North,4.6,-,N/A,,Overcast,350,2013-01-03 04:35:00
10:55 PM,30.2,28.4,93,30.21,4.0,North,5.8,-,N/A,,Overcast,360,2013-01-03 04:55:00
11:15 PM,30.2,28.4,93,30.20,5.0,NNE,3.5,-,N/A,,Overcast,30,2013-01-03 05:15:00
11:35 PM,30.2,28.4,93,30.20,5.0,North,5.8,-,N/A,,Overcast,360,2013-01-03 05:35:00
11:55 PM,30.2,28.4,93,30.20,5.0,North,5.8,-,N/A,,Overcast,350,2013-01-03 05:55:00